Terminal Aerodrome Forecast
Issued by NWS Sioux Falls, SD

Home | Current Version | Previous Version | Graphics & Text | Print | Product List | Glossary Off
Versions: 1 2 3 4 5 6 7 8 9 10 11 12 13 14 15 16 17 18 19 20 21 22 23 24 25 26

000
FTUS43 KFSD 100520
TAFSUX
TAF
KSUX 100520Z 1006/1106 VRB05KT P6SM FEW250
     FM100800 30011KT P6SM FEW200
     FM101700 32012G18KT P6SM SCT200
     FM102200 30008KT P6SM FEW200
     FM110200 28004KT P6SM SCT120=

USA.gov is the U.S. government's official web portal to all federal, state and local government web resources and services.